Flag for Germany Weather past 2 weeks in Siegburg, North Rhine-Westphalia, Germany

Now
66 °F

Passing clouds.


Feels Like: 66 °F
Forecast: 38 / 60 °F
Wind: 3 mph from North

Location: Bonn-Hangelar

Current Time: Apr 21, 2015 at 4:23:33 PM

Latest Report: Apr 21, 2015 at 4:00 PM


Visibility: 25 mi

Pressure: 30.42 "Hg

Humidity: 37%

Dew point: 39 °F

Location of SiegburgLocation

Historic Weather in Siegburg — Graph

°F

Siegburg temperature yesterday

Maximum temperature yesterday: 63 °F (at 4:00 PM)
Minimum temperature yesterday: 38 °F (at 7:00 AM)
Average temperature yesterday: 52 °F

Past Weeks' High & Low Weather Summary

 TemperatureHumidityPressure
High72 °F (Apr 15, 5:00 PM)97% (Apr 7, 2:00 AM)30.65 "Hg (Apr 7, 2:00 AM)
Low35 °F (Apr 19, 6:00 AM)31% (Apr 10, 3:00 PM)29.93 "Hg (Apr 16, 6:00 PM)
Average51 °F67%30.28 "Hg
* Reported Apr 6 3:00 PM — Apr 21 3:00 PM, Siegburg, Weather by CustomWeather, © 2015

Note: Actual official high and low records may vary slightly from our data, if they occured in-between our weather recording intervals... More about our weather records

Advertising

Siegburg weather history for previous 24 hours

 ConditionsComfort  
Time TempWeatherWind HumidityBarometerVisibility
3:00 PM
Tue, Apr 21
65 °FPassing clouds.2 mph40%30.43 "Hg25 mi
2:00 PM62 °FPassing clouds.3 mph44%30.44 "Hg25 mi
1:00 PM61 °FPassing clouds.5 mph51%30.46 "Hg25 mi
12:00 PM58 °FScattered clouds.2 mph56%30.46 "Hg25 mi
11:00 AM56 °FScattered clouds.1 mph61%30.46 "Hg25 mi
10:00 AM52 °FPartly sunny.2 mph68%30.46 "Hg25 mi
9:00 AM49 °FPartly sunny.1 mph72%30.46 "Hg37 mi
8:00 AM48 °FScattered clouds.1 mph77%30.44 "Hg37 mi
7:00 AM44 °FScattered clouds.1 mph80%30.43 "Hg37 mi
6:00 AM44 °FPassing clouds.1 mph78%30.43 "Hg37 mi
5:00 AM44 °FOvercast.1 mph74%30.43 "Hg18 mi
4:00 AM45 °FPassing clouds.2 mph71%30.43 "Hg14 mi
3:00 AM47 °FClear.1 mph69%30.42 "Hg19 mi
2:00 AM50 °FClear.2 mph64%30.40 "Hg19 mi
1:00 AM50 °FPassing clouds.2 mph66%30.40 "Hg15 mi
12:00 AM53 °FOvercast.3 mph59%30.38 "Hg14 mi
11:00 PM
Mon, Apr 20
54 °FOvercast.3 mph56%30.38 "Hg11 mi
10:00 PM55 °FOvercast.3 mph55%30.37 "Hg14 mi
9:00 PM56 °FPassing clouds.3 mph49%30.36 "Hg16 mi
8:00 PM59 °FScattered clouds.5 mph42%30.34 "Hg17 mi
7:00 PM62 °FSunny.5 mph38%30.33 "Hg12 mi
6:00 PM63 °FSunny.5 mph37%30.33 "Hg15 mi
5:00 PM62 °FSunny.6 mph34%30.33 "Hg16 mi
4:00 PM63 °FSunny.5 mph37%30.34 "Hg16 mi
Weather by CustomWeather, © 2015

See weather overviewHow to use our weather pages